Total_Precipitation_Accumulation
1.94 2.17 2.15 2.04 2.05 2.07 2.25 2.50 2.64 2.43 2.19 1.98 1.77 1.60 1.68 1.79 1.84 1.58 1.51 1.68 1.52 1.30 1.22 1.19 1.17 1.19 1.25 1.29 1.34 1.43 1.51 1.60 1.73 1.94 2.28 2.72 3.11 3.52
2.04 2.16 2.17 2.15 2.19 2.09 2.19 2.41 2.59 2.63 2.30 1.90 1.79 1.67 1.66 1.49 1.63 1.44 1.39 1.51 1.38 1.28 1.21 1.15 1.10 1.12 1.14 1.15 1.12 1.12 1.16 1.19 1.23 1.29 1.39 1.56 1.80 2.13
2.07 2.22 2.30 2.46 2.47 2.34 2.32 2.30 2.38 2.52 2.30 1.94 1.81 1.74 1.61 1.44 1.41 1.31 1.23 1.23 1.19 1.29 1.21 1.08 0.97 0.94 0.99 1.02 1.03 1.02 0.98 0.97 1.01 1.04 1.09 1.17 1.25 1.38
2.28 2.45 2.49 2.51 2.45 2.34 2.38 2.35 2.32 2.48 2.36 2.05 1.94 1.81 1.69 1.51 1.43 1.38 1.21 1.14 1.18 1.40 1.33 1.14 1.01 0.96 0.94 0.91 0.87 0.88 0.93 0.94 0.95 0.95 0.97 1.01 1.05 1.10
2.28 2.33 2.31 2.40 2.33 2.31 2.21 2.18 2.20 2.37 2.49 2.24 2.14 2.12 1.95 1.75 1.64 1.50 1.36 1.34 1.14 1.19 1.22 1.14 1.07 0.98 0.92 0.89 0.90 0.89 0.85 0.83 0.83 0.86 0.90 0.96 0.97 0.99
2.16 2.22 2.28 2.28 2.32 2.41 2.30 2.30 2.41 2.53 2.59 2.50 2.38 2.42 2.30 2.08 1.89 1.69 1.52 1.41 1.28 1.06 1.12 1.14 1.10 1.01 0.93 0.87 0.86 0.86 0.87 0.84 0.80 0.82 0.82 0.84 0.92 1.01
2.06 2.02 2.10 2.27 2.35 2.38 2.20 2.29 2.44 2.44 2.41 2.44 2.39 2.48 2.45 2.30 1.99 1.73 1.64 1.61 1.46 1.26 1.18 1.05 1.05 1.04 1.01 1.00 0.99 0.97 0.91 0.90 0.89 0.87 0.86 0.89 0.94 1.06
2.00 1.90 1.82 1.82 1.91 2.04 2.05 2.05 2.13 2.20 2.28 2.29 2.29 2.36 2.38 2.29 2.12 1.92 1.81 1.71 1.60 1.51 1.52 1.44 1.29 1.29 1.18 1.05 1.09 1.05 0.99 0.94 0.92 0.91 0.90 0.90 0.95 1.07
1.66 1.63 1.42 1.34 1.61 1.71 1.87 1.86 1.75 1.74 1.80 1.97 2.08 2.08 2.23 2.29 2.29 2.07 2.00 1.88 1.70 1.66 1.68 1.64 1.54 1.42 1.21 1.15 1.25 1.10 1.05 1.01 0.99 0.98 0.96 0.92 0.88 0.89
1.45 1.41 1.41 1.41 1.49 1.63 1.68 1.64 1.57 1.52 1.54 1.55 1.64 1.86 2.06 2.25 2.28 2.19 2.17 2.04 1.82 1.69 1.67 1.66 1.54 1.45 1.26 1.20 1.24 1.12 1.04 0.99 0.97 1.03 1.13 1.11 0.97 0.90
1.55 1.59 1.61 1.48 1.54 1.53 1.52 1.48 1.45 1.49 1.51 1.50 1.50 1.67 1.86 2.00 2.19 2.18 2.11 2.01 1.79 1.68 1.64 1.59 1.52 1.54 1.44 1.27 1.13 1.07 0.91 0.82 0.79 0.81 0.96 1.21 1.31 1.15
1.81 1.70 1.62 1.45 1.40 1.35 1.34 1.38 1.32 1.33 1.48 1.49 1.45 1.52 1.65 1.80 2.01 2.00 1.92 1.95 1.78 1.63 1.49 1.50 1.48 1.53 1.52 1.29 1.10 0.96 0.86 0.82 0.76 0.76 0.91 1.24 1.41 1.25
1.82 1.74 1.63 1.49 1.32 1.29 1.23 1.22 1.24 1.34 1.42 1.46 1.52 1.59 1.72 1.83 1.86 1.87 1.89 1.82 1.77 1.54 1.33 1.44 1.43 1.39 1.35 1.22 1.06 0.95 0.87 0.81 0.76 0.75 0.84 1.10 1.36 1.32
1.95 1.86 1.77 1.63 1.39 1.31 1.18 1.14 1.19 1.16 1.23 1.34 1.40 1.50 1.63 1.78 1.89 1.98 1.99 1.88 1.73 1.58 1.52 1.52 1.46 1.40 1.34 1.21 1.08 0.95 0.93 0.88 0.84 0.82 0.81 0.96 1.07 1.32
2.01 2.08 1.90 1.72 1.51 1.36 1.31 1.26 1.18 1.09 1.20 1.32 1.29 1.34 1.44 1.64 1.93 2.13 2.20 2.14 1.88 1.59 1.48 1.43 1.38 1.39 1.41 1.23 1.06 0.95 0.94 0.95 0.89 0.88 0.89 0.92 1.00 1.20
1.97 2.02 1.89 1.74 1.53 1.39 1.38 1.28 1.13 1.10 1.19 1.28 1.33 1.39 1.51 1.62 1.78 1.95 2.15 2.20 2.01 1.59 1.44 1.41 1.39 1.44 1.40 1.28 1.16 1.02 0.94 0.95 0.95 0.98 1.05 1.07 1.16 1.26
2.02 2.06 2.00 1.89 1.76 1.61 1.52 1.51 1.47 1.39 1.31 1.31 1.44 1.49 1.51 1.50 1.57 1.71 1.94 2.05 1.89 1.51 1.33 1.35 1.45 1.51 1.50 1.50 1.37 1.14 1.05 0.97 0.97 1.10 1.23 1.22 1.19 1.19
1.78 1.95 1.98 1.89 1.80 1.76 1.72 1.68 1.63 1.53 1.44 1.42 1.45 1.48 1.47 1.47 1.50 1.60 1.72 1.82 1.77 1.57 1.42 1.34 1.46 1.57 1.53 1.43 1.27 1.14 1.07 1.05 1.05 1.18 1.24 1.21 1.13 1.10
1.53 1.71 1.75 1.72 1.70 1.73 1.73 1.66 1.58 1.54 1.56 1.50 1.43 1.46 1.51 1.50 1.52 1.59 1.65 1.74 1.77 1.72 1.61 1.51 1.51 1.56 1.44 1.18 1.01 0.99 1.04 1.07 1.14 1.19 1.19 1.15 1.05 1.03
1.37 1.49 1.52 1.55 1.62 1.68 1.70 1.68 1.60 1.60 1.65 1.62 1.57 1.59 1.67 1.67 1.62 1.62 1.69 1.72 1.77 1.79 1.75 1.58 1.45 1.40 1.33 1.20 1.07 0.93 0.90 1.02 1.12 1.14 1.15 1.18 1.13 1.15
1.33 1.43 1.49 1.52 1.57 1.66 1.69 1.70 1.69 1.71 1.69 1.69 1.68 1.68 1.76 1.82 1.70 1.61 1.66 1.76 1.74 1.76 1.70 1.53 1.42 1.52 1.58 1.59 1.35 1.01 0.92 0.96 1.04 1.14 1.21 1.31 1.29 1.31
1.48 1.48 1.56 1.60 1.59 1.59 1.63 1.64 1.66 1.68 1.67 1.66 1.69 1.75 1.79 1.80 1.70 1.65 1.65 1.71 1.67 1.62 1.62 1.66 1.80 1.87 1.76 1.63 1.36 1.15 1.10 1.08 1.09 1.10 1.09 1.11 1.13 1.11
1.56 1.55 1.55 1.51 1.50 1.53 1.56 1.57 1.63 1.65 1.64 1.64 1.69 1.75 1.75 1.74 1.69 1.68 1.68 1.68 1.73 1.75 1.82 1.88 1.96 1.91 1.71 1.58 1.44 1.33 1.28 1.28 1.24 1.20 1.14 1.08 0.96 0.88